This demonstration page uses our WeatherBlox Daily Observations layout. Learn more.

Left ArrowRight Arrow

34.74481, -87.66753

Hourly Observations for July 11, 2019

Temp ( °F °C ) Dew Point ( °F °C ) Humidity (%) Winds ( mph kmh ) Pressure ( in mb ) Visibility ( mi km ) Precip ( " mm )
12:53 am 00:53 Clear 79 26.1 75 23.9 88 88 S 3 6 29.89 1012 10 16 0.00 0.00
1:53 am 01:53 Clear 79 26.1 75 23.9 88 88 NE 3 6 29.88 1012 10 16 0.00 0.00
2:37 am 02:37 Mostly Cloudy 79 26.1 76 24.4 90 90 N 6 9 29.91 1013 10 16 0.00 0.00
2:53 am 02:53 Mostly Cloudy 79 26.1 75 23.9 88 88 N 6 9 29.90 1013 10 16 0.00 0.00
3:00 am 03:00 Partly Cloudy 79 26.1 75 23.9 88 88 NNW 6 9 29.91 1013 10 16 0.00 0.00
3:53 am 03:53 Mostly Clear 79 26.1 75 23.9 88 88 N 3 6 29.91 1013 10 16 0.00 0.00
4:53 am 04:53 Clear 78 25.6 75 23.9 90 90 NNW 3 6 29.91 1013 10 16 0.00 0.00
5:00 am 05:00 Partly Cloudy 78 25.6 75 23.9 90 90 Calm 29.92 1013 10 16 0.00 0.00
5:11 am 05:11 Mostly Cloudy 78 25.6 75 23.9 90 90 Calm 29.92 1013 10 16 0.00 0.00
5:53 am 05:53 Cloudy 78 25.6 75 23.9 90 90 Calm 29.93 1013 10 16 0.00 0.00
6:53 am 06:53 Mostly Cloudy 80 26.7 76 24.4 87 87 VRB 3 6 29.93 1014 10 16 0.00 0.00
7:10 am 07:10 Cloudy 80 26.7 76 24.4 87 87 Calm 29.93 1014 10 16 0.00 0.00
7:43 am 07:43 Mostly Cloudy 81 27.2 75 23.9 82 82 ENE 6 9 29.93 1014 10 16 0.00 0.00
7:53 am 07:53 Partly Cloudy 81 27.2 75 23.9 82 82 E 3 6 29.93 1014 10 16 0.00 0.00
8:53 am 08:53 Sunny 84 28.9 74 23.3 72 72 Calm 29.94 1014 10 16 0.00 0.00
9:53 am 09:53 Mostly Sunny 82 27.8 76 24.4 82 82 WNW 10 17 29.96 1015 10 16 0.00 0.00
10:26 am 10:26 Mostly Sunny 81 27.2 76 24.4 85 85 WNW 8 13 29.96 1015 10 16 0.00 0.00
10:43 am 10:43 Mostly Cloudy 80 26.7 75 23.9 85 85 NW 8 13 29.96 1015 10 16 0.00 0.00
10:53 am 10:53 Cloudy with Light Rain 80 26.7 76 24.4 87 87 NW 7 11 29.96 1015 10 16 0.00 0.03
11:53 am 11:53 Mostly Cloudy 81 27.2 74 23.3 79 79 NNW 6 9 29.94 1014 10 16 0.00 0.03
12:53 pm 12:53 Sunny 87 30.6 75 23.9 67 67 VRB 3 6 29.90 1013 10 16 0.00 0.00
1:53 pm 13:53 Sunny 90 32.2 76 24.4 63 63 N 7 11 29.88 1012 10 16 0.00 0.00
2:53 pm 14:53 Sunny 93 33.9 74 23.3 54 54 NNW 5 7 29.87 1011 10 16 0.00 0.00
3:53 pm 15:53 Sunny 93 33.9 74 23.3 54 54 N 6 9 29.84 1011 10 16 0.00 0.00
4:53 pm 16:53 Sunny 94 34.4 74 23.3 52 52 NNE 5 7 29.83 1010 10 16 0.00 0.00
5:53 pm 17:53 Sunny 92 33.3 75 23.9 58 58 NE 5 7 29.82 1010 10 16 0.00 0.00
6:53 pm 18:53 Mostly Sunny 91 32.8 74 23.3 57 57 S 14 22 29.85 1011 10 16 0.00 0.00
7:07 pm 19:07 Mostly Cloudy with Nearby Thunderstorms 81 27.2 73 22.8 77 77 S 20 31 29.86 1011 10 16 0.00 0.00
7:23 pm 19:23 Mostly Cloudy 79 26.1 74 23.3 85 85 SSW 14 22 29.87 1011 10 16 0.00 0.03
7:30 pm 19:30 Mostly Cloudy with Nearby Thunderstorms 79 26.1 74 23.3 85 85 SSW 10 17 29.88 1012 10 16 0.00 0.03
7:53 pm 19:53 Cloudy with Light Rain 78 25.6 74 23.3 87 87 SW 7 11 29.87 1012 10 16 0.01 0.25
8:53 pm 20:53 Cloudy 78 25.6 74 23.3 87 87 Calm 29.84 1011 10 16 0.00 0.03
9:53 pm 21:53 Clear 78 25.6 74 23.3 87 87 SW 6 9 29.87 1012 10 16 0.00 0.00
10:53 pm 22:53 Partly Cloudy 78 25.6 74 23.3 87 87 Calm 29.88 1012 10 16 0.00 0.00
11:53 pm 23:53 Partly Cloudy 79 26.1 75 23.9 88 88 Calm 29.88 1012 10 16 0.00 0.00

Powered by AerisWeather